Location: Absher
(46.5583°N, 107.9840°W)
Time: 07:57:40
(UTC+00:00)

BEESAT 3 - Visible Passes

Search period start: 01 April 2023 00:00
Search period end: 11 April 2023 00:00
Orbit: 410 x 435 km, 64.9° (Epoch: 30 March)

Date Brightness Start Highest point End Pass type
(mag) Time Alt. Az. Time Alt. Az. Time Alt. Az.
01 Apr ? 09:39:14 15° NNE 09:39:14 15° NNE 09:39:58 10° NNE visible
02 Apr ? 10:27:39 12° NNW 10:27:39 12° NNW 10:28:34 10° N visible
03 Apr ? 09:42:48 13° N 09:42:48 13° N 09:43:25 10° N visible
